Location: Ocean City
(38.3360°N, 75.0850°W)
Time: 17:07:54
(UTC-04:00)

BEESAT 2 - Pass Details

Date: 23 May 2019
Orbit: 502 x 528 km, 64.9° (Epoch: 20 June)

Event Time Altitude Azimuth Distance (km) Brightness Sun altitude
Rises 03:06:22 0° 340° (NNW) 2,669 ? -23.8°
Reaches altitude 10° 03:08:49 10° 352° (N) 1,778 ? -23.5°
Maximum altitude 03:12:14 27° 52° (NE) 1,046 ? -23.1°
Drops below altitude 10° 03:15:38 10° 111° (ESE) 1,768 ? -22.7°
Sets 03:18:03 0° 123° (ESE) 2,652 ? -22.5°
